Tracking 19651 objects as of 22-Apr-2019
HD Live streaming from Space Station
objects crossing your sky now

GLOBALSTAR M047

Track GLOBALSTAR M047 now!
10-day predictions
GLOBALSTAR M047 is classified as:


NORAD ID: 25772
Int'l Code: 1999-031C
Perigee: 1,994.4 km
Apogee: 2,021.9 km
Inclination: 52.0 °
Period: 127.2 minutes
Semi major axis: 8379 km
RCS: 2.931 m2 (large)
Launch date: June 10, 1999
Source: Globalstar (GLOB)
Launch site: AIR FORCE EASTERN TEST RANGE (AFETR)
aabbcc
Your satellite tracking list
Your tracking list is empty




NASA's NSSDC Master Catalog

Two Line Element Set (TLE):
1 25772U 99031C   19111.88720760 -.00000086 +00000-0 -44945-3 0  9991
2 25772 051.9814 100.9747 0016417 002.2259 357.8617 11.31894689216512
Source of the keplerian elements: AFSPC